| time (UTC) | temp F | wind direction | speed MPH | gust MPH | rain 1hr in | rain 24hr in | rain mn in | humidity % | barometer mb |
| 20260904093532 | 66 | 180 | 0.0 | 0.0 | 0.00 | 0.11 | 0.00 | 96 | 1012.7 |
| 20260904092534 | 66 | 180 | 0.0 | 0.0 | 0.00 | 0.11 | 0.00 | 96 | 1012.6 |
| 20260904091631 | 66 | 180 | 0.0 | 0.0 | 0.00 | 0.11 | 0.00 | 97 | 1012.6 |
| 20260904090632 | 66 | 180 | 0.0 | 0.0 | 0.00 | 0.11 | 0.00 | 97 | 1012.8 |
| 20260904085633 | 66 | 180 | 0.0 | 0.0 | 0.00 | 0.12 | 0.00 | 96 | 1012.7 |
| 20260904084631 | 66 | 180 | 0.0 | 0.0 | 0.00 | 0.17 | 0.00 | 97 | 1012.6 |
| 20260904083633 | 66 | 180 | 0.0 | 0.0 | 0.00 | 0.33 | 0.00 | 97 | 1012.6 |
| 20260904081731 | 66 | 180 | 0.0 | 0.0 | 0.00 | 0.40 | 0.00 | 96 | 1012.9 |
| 20260904080732 | 66 | 180 | 0.0 | 0.0 | 0.00 | 0.41 | 0.00 | 97 | 1012.9 |
| 20260904075733 | 66 | 180 | 0.0 | 0.0 | 0.00 | 0.41 | 0.00 | 97 | 1012.9 |
| 20260904074748 | 66 | 180 | 0.0 | 0.0 | 0.00 | 0.41 | 0.00 | 97 | 1013.0 |
| 20260904072832 | 66 | 180 | 0.0 | 0.0 | 0.00 | 0.41 | 0.00 | 97 | 1013.4 |
| 20260904071832 | 66 | 180 | 0.0 | 0.0 | 0.00 | 0.41 | 0.00 | 96 | 1013.2 |
| 20260904065934 | 66 | 180 | 0.0 | 0.0 | 0.00 | 0.41 | 0.00 | 95 | 1013.3 |
| 20260904064933 | 66 | 180 | 0.0 | 0.0 | 0.00 | 0.41 | 0.00 | 96 | 1013.3 |
| 20260904064832 | 66 | 180 | 0.0 | 0.0 | 0.00 | 0.41 | 0.00 | 96 | 1013.3 |
| 20260904063851 | 66 | 180 | 0.0 | 0.0 | 0.00 | 0.41 | 0.00 | 96 | 1013.4 |
| 20260904060931 | 66 | 180 | 0.0 | 0.0 | 0.00 | 0.41 | 0.00 | 95 | 1013.5 |
| 20260904054934 | 67 | 180 | 0.0 | 0.0 | 0.00 | 0.41 | 0.00 | 96 | 1013.9 |
| 20260904053034 | 67 | 180 | 0.0 | 0.0 | 0.00 | 0.41 | 0.00 | 95 | 1014.1 |
| 20260904045133 | 66 | 180 | 0.0 | 0.0 | 0.00 | 0.41 | 0.00 | 95 | 1014.4 |
| 20260904044134 | 66 | 92 | 0.0 | 0.0 | 0.00 | 0.41 | 0.00 | 94 | 1014.4 |
| 20260904043130 | 66 | 180 | 0.0 | 0.0 | 0.00 | 0.41 | 0.00 | 94 | 1014.6 |
| 20260904041231 | 66 | 180 | 0.0 | 0.0 | 0.00 | 0.41 | 0.00 | 94 | 1014.7 |
| 20260904040232 | 66 | 180 | 0.0 | 0.0 | 0.00 | 0.41 | 0.00 | 94 | 1014.6 |
| 20260904035240 | 66 | 180 | 0.0 | 0.0 | 0.00 | 0.41 | 0.41 | 93 | 1014.6 |
| 20260904034238 | 66 | 180 | 0.0 | 0.0 | 0.00 | 0.41 | 0.41 | 93 | 1014.7 |
| 20260904032239 | 67 | 180 | 0.0 | 0.0 | 0.00 | 0.41 | 0.41 | 93 | 1014.6 |
| 20260904031241 | 67 | 180 | 0.0 | 0.0 | 0.00 | 0.41 | 0.41 | 93 | 1014.7 |
| 20260904030338 | 67 | 180 | 0.0 | 0.0 | 0.00 | 0.41 | 0.41 | 92 | 1014.7 |
| 20260904025339 | 67 | 180 | 0.0 | 0.0 | 0.00 | 0.41 | 0.41 | 91 | 1014.8 |
| 20260904024341 | 67 | 180 | 0.0 | 0.0 | 0.00 | 0.41 | 0.41 | 92 | 1014.9 |
| 20260904021341 | 67 | 180 | 0.0 | 0.0 | 0.00 | 0.41 | 0.41 | 91 | 1015.2 |
| 20260904020356 | 67 | 180 | 0.0 | 0.0 | 0.00 | 0.41 | 0.41 | 90 | 1015.3 |
| 20260904015340 | 67 | 180 | 0.0 | 0.0 | 0.00 | 0.41 | 0.41 | 91 | 1015.1 |
| 20260904013340 | 67 | 93 | 0.0 | 0.0 | 0.00 | 0.41 | 0.41 | 91 | 1015.3 |
| 20260904012340 | 68 | 121 | 0.0 | 0.0 | 0.00 | 0.41 | 0.41 | 91 | 1015.5 |
| 20260904011340 | 68 | 90 | 0.0 | 0.0 | 0.00 | 0.41 | 0.41 | 90 | 1015.4 |
| 20260904005340 | 68 | 90 | 0.0 | 0.0 | 0.00 | 0.41 | 0.41 | 89 | 1015.2 |
| 20260904004342 | 68 | 90 | 0.0 | 0.0 | 0.00 | 0.41 | 0.41 | 90 | 1015.0 |
| 20260904003438 | 68 | 90 | 0.0 | 0.0 | 0.00 | 0.41 | 0.41 | 89 | 1014.9 |
| 20260904003337 | 68 | 90 | 0.0 | 0.0 | 0.00 | 0.41 | 0.41 | 89 | 1014.8 |
| 20260904001339 | 68 | 180 | 0.0 | 0.0 | 0.00 | 0.41 | 0.41 | 88 | 1014.7 |
| 20260904000340 | 68 | 90 | 0.0 | 0.0 | 0.00 | 0.41 | 0.41 | 87 | 1014.9 |
| 20260904000240 | 68 | 90 | 0.0 | 0.0 | 0.00 | 0.41 | 0.41 | 87 | 1014.8 |
| 20260903235237 | 68 | 90 | 0.0 | 0.0 | 0.00 | 0.41 | 0.41 | 87 | 1014.7 |
| 20260903234241 | 68 | 180 | 0.0 | 0.0 | 0.00 | 0.41 | 0.41 | 86 | 1014.5 |
| 20260903233240 | 69 | 180 | 0.0 | 0.0 | 0.00 | 0.41 | 0.41 | 86 | 1014.7 |
| 20260903231337 | 70 | 156 | 0.0 | 0.0 | 0.00 | 0.41 | 0.41 | 83 | 1014.7 |
| 20260903230339 | 71 | 180 | 0.0 | 0.0 | 0.00 | 0.41 | 0.41 | 83 | 1014.3 |
| 20260903225338 | 71 | 180 | 0.0 | 0.0 | 0.00 | 0.41 | 0.41 | 82 | 1014.4 |
| 20260903224355 | 71 | 180 | 0.0 | 0.0 | 0.00 | 0.41 | 0.41 | 82 | 1014.4 |
| 20260903223340 | 71 | 180 | 0.0 | 0.0 | 0.00 | 0.41 | 0.41 | 81 | 1014.8 |
| 20260903223238 | 71 | 180 | 0.0 | 0.0 | 0.00 | 0.41 | 0.41 | 81 | 1014.8 |
| 20260903222253 | 72 | 180 | 0.0 | 0.0 | 0.00 | 0.41 | 0.41 | 78 | 1014.8 |
| 20260903221338 | 73 | 180 | 0.0 | 1.0 | 0.00 | 0.41 | 0.41 | 76 | 1014.9 |
| 20260903220437 | 74 | 180 | 0.0 | 0.0 | 0.00 | 0.41 | 0.41 | 75 | 1014.8 |
| 20260903215441 | 75 | 180 | 0.0 | 1.0 | 0.00 | 0.41 | 0.41 | 74 | 1014.7 |
| 20260903214440 | 76 | 180 | 0.0 | 0.0 | 0.00 | 0.41 | 0.41 | 74 | 1014.6 |
| 20260903213454 | 76 | 180 | 0.0 | 2.0 | 0.00 | 0.41 | 0.41 | 73 | 1014.7 |
| 20260903212538 | 76 | 180 | 0.0 | 3.0 | 0.00 | 0.41 | 0.41 | 73 | 1014.6 |
| 20260903211541 | 77 | 180 | 0.0 | 0.0 | 0.00 | 0.41 | 0.41 | 72 | 1014.7 |
| 20260903210638 | 77 | 180 | 0.0 | 0.0 | 0.00 | 0.41 | 0.41 | 74 | 1014.6 |
| 20260903205638 | 75 | 180 | 0.0 | 0.0 | 0.00 | 0.41 | 0.41 | 76 | 1014.5 |
| 20260903204640 | 75 | 180 | 0.0 | 0.0 | 0.00 | 0.41 | 0.41 | 76 | 1014.5 |
| 20260903203738 | 74 | 180 | 0.0 | 0.0 | 0.00 | 0.41 | 0.41 | 78 | 1014.7 |
| 20260903202837 | 74 | 90 | 0.0 | 0.0 | 0.00 | 0.41 | 0.41 | 78 | 1014.7 |
| 20260903201840 | 74 | 178 | 0.0 | 0.0 | 0.00 | 0.41 | 0.41 | 78 | 1014.9 |
| 20260903200840 | 74 | 180 | 0.0 | 0.0 | 0.00 | 0.41 | 0.41 | 79 | 1014.9 |
| 20260903195838 | 74 | 180 | 0.0 | 3.0 | 0.00 | 0.41 | 0.41 | 79 | 1015.1 |
| 20260903194838 | 74 | 180 | 0.0 | 0.0 | 0.00 | 0.41 | 0.41 | 81 | 1015.2 |
| 20260903193840 | 72 | 180 | 0.0 | 0.0 | 0.00 | 0.41 | 0.41 | 82 | 1015.2 |
| 20260903192938 | 72 | 180 | 0.0 | 0.0 | 0.00 | 0.41 | 0.41 | 83 | 1015.3 |
| 20260903191937 | 72 | 180 | 0.0 | 2.0 | 0.00 | 0.41 | 0.41 | 83 | 1015.5 |
| 20260903190939 | 72 | 180 | 0.0 | 0.0 | 0.00 | 0.41 | 0.41 | 82 | 1015.5 |
| 20260903185938 | 72 | 180 | 0.0 | 0.0 | 0.00 | 0.41 | 0.41 | 83 | 1015.7 |
| 20260903184839 | 72 | 180 | 0.0 | 0.0 | 0.00 | 0.41 | 0.41 | 82 | 1015.7 |
| 20260903183838 | 73 | 180 | 0.0 | 0.0 | 0.00 | 0.41 | 0.41 | 81 | 1015.8 |
| 20260903182839 | 74 | 180 | 0.0 | 0.0 | 0.00 | 0.41 | 0.41 | 79 | 1016.0 |
| 20260903181938 | 75 | 90 | 0.0 | 0.0 | 0.00 | 0.41 | 0.41 | 79 | 1016.1 |
| 20260903181839 | 75 | 90 | 0.0 | 0.0 | 0.00 | 0.41 | 0.41 | 78 | 1016.1 |
| 20260903180839 | 75 | 180 | 0.0 | 0.0 | 0.00 | 0.41 | 0.41 | 78 | 1016.1 |
| 20260903175839 | 76 | 180 | 0.0 | 0.0 | 0.00 | 0.41 | 0.41 | 77 | 1016.1 |
| 20260903174838 | 76 | 180 | 0.0 | 0.0 | 0.00 | 0.41 | 0.41 | 78 | 1016.1 |
| 20260903173839 | 76 | 180 | 0.0 | 0.0 | 0.00 | 0.41 | 0.41 | 78 | 1016.2 |
| 20260903172938 | 76 | 180 | 0.0 | 0.0 | 0.00 | 0.41 | 0.41 | 78 | 1016.2 |
| 20260903172037 | 76 | 180 | 0.0 | 0.0 | 0.00 | 0.41 | 0.41 | 79 | 1016.2 |
| 20260903171040 | 76 | 180 | 0.0 | 0.0 | 0.00 | 0.41 | 0.41 | 78 | 1016.1 |
| 20260903170137 | 76 | 180 | 0.0 | 1.0 | 0.00 | 0.41 | 0.41 | 80 | 1016.1 |
| 20260903165140 | 76 | 180 | 0.0 | 0.0 | 0.00 | 0.41 | 0.41 | 83 | 1015.9 |
| 20260903161357 | 71 | 180 | 0.0 | 0.0 | 0.00 | 0.41 | 0.41 | 93 | 1016.1 |
| 20260903161238 | 71 | 180 | 0.0 | 0.0 | 0.00 | 0.41 | 0.41 | 94 | 1016.1 |
| 20260903160255 | 71 | 180 | 0.0 | 0.0 | 0.00 | 0.41 | 0.41 | 94 | 1016.2 |
| 20260903155239 | 70 | 180 | 0.0 | 0.0 | 0.00 | 0.41 | 0.41 | 95 | 1016.5 |
| 20260903153339 | 69 | 180 | 0.0 | 0.0 | 0.00 | 0.41 | 0.41 | 95 | 1016.7 |
| 20260903153237 | 69 | 180 | 0.0 | 0.0 | 0.00 | 0.41 | 0.41 | 95 | 1016.7 |
| 20260903152239 | 68 | 180 | 0.0 | 0.0 | 0.00 | 0.41 | 0.41 | 96 | 1016.8 |
| 20260903151254 | 68 | 180 | 0.0 | 0.0 | 0.00 | 0.41 | 0.41 | 96 | 1016.8 |
| 20260903150255 | 68 | 180 | 0.0 | 0.0 | 0.00 | 0.41 | 0.41 | 96 | 1017.0 |
| 20260903145240 | 67 | 180 | 0.0 | 0.0 | 0.00 | 0.41 | 0.41 | 95 | 1017.2 |
| 20260903144239 | 67 | 180 | 0.0 | 0.0 | 0.00 | 0.41 | 0.41 | 96 | 1017.1 |
| 20260903143239 | 66 | 180 | 0.0 | 0.0 | 0.00 | 0.41 | 0.41 | 96 | 1017.2 |
| 20260903142241 | 66 | 180 | 0.0 | 0.0 | 0.00 | 0.41 | 0.41 | 97 | 1017.3 |
| 20260903141337 | 66 | 180 | 0.0 | 0.0 | 0.00 | 0.41 | 0.41 | 97 | 1017.4 |
| 20260903140356 | 65 | 180 | 0.0 | 0.0 | 0.00 | 0.41 | 0.41 | 96 | 1017.6 |
| 20260903135438 | 65 | 180 | 0.0 | 0.0 | 0.00 | 0.41 | 0.41 | 97 | 1017.7 |
| 20260903134440 | 65 | 180 | 0.0 | 0.0 | 0.00 | 0.41 | 0.41 | 97 | 1017.8 |
| 20260903133537 | 65 | 180 | 0.0 | 0.0 | 0.00 | 0.41 | 0.41 | 96 | 1017.7 |
| 20260903131539 | 65 | 180 | 0.0 | 0.0 | 0.00 | 0.41 | 0.41 | 97 | 1017.5 |
| 20260903130538 | 65 | 180 | 0.0 | 0.0 | 0.00 | 0.41 | 0.41 | 97 | 1017.5 |
| 20260903125538 | 64 | 180 | 0.0 | 0.0 | 0.00 | 0.41 | 0.41 | 97 | 1017.8 |
| 20260903124637 | 64 | 180 | 0.0 | 0.0 | 0.01 | 0.41 | 0.41 | 95 | 1017.8 |
| 20260903123638 | 64 | 180 | 0.0 | 0.0 | 0.01 | 0.41 | 0.41 | 96 | 1018.0 |
| 20260903122737 | 64 | 180 | 0.0 | 0.0 | 0.02 | 0.41 | 0.41 | 95 | 1018.0 |
| 20260903120840 | 64 | 180 | 0.0 | 0.0 | 0.04 | 0.41 | 0.41 | 96 | 1018.3 |
| 20260903113838 | 64 | 180 | 0.0 | 0.0 | 0.09 | 0.40 | 0.40 | 95 | 1018.7 |
| 20260903112838 | 64 | 180 | 0.0 | 0.0 | 0.08 | 0.39 | 0.39 | 96 | 1018.6 |
| 20260903110939 | 64 | 180 | 0.0 | 0.0 | 0.08 | 0.38 | 0.37 | 96 | 1018.6 |
| 20260903105038 | 64 | 180 | 0.0 | 0.0 | 0.04 | 0.34 | 0.34 | 94 | 1018.1 |
| 20260903104137 | 64 | 180 | 0.0 | 0.0 | 0.02 | 0.32 | 0.31 | 95 | 1018.2 |
| 20260903103236 | 63 | 180 | 0.0 | 0.0 | 0.01 | 0.31 | 0.31 | 94 | 1018.2 |
| 20260903102238 | 63 | 180 | 0.0 | 0.0 | 0.01 | 0.31 | 0.31 | 95 | 1018.1 |
| 20260903101237 | 63 | 180 | 0.0 | 0.0 | 0.00 | 0.30 | 0.30 | 94 | 1018.2 |
| 20260903100239 | 63 | 180 | 0.0 | 0.0 | 0.01 | 0.30 | 0.30 | 95 | 1018.1 |
| 20260903095238 | 63 | 180 | 0.0 | 0.0 | 0.01 | 0.30 | 0.30 | 94 | 1018.4 |
| 20260903094240 | 63 | 180 | 0.0 | 0.0 | 0.11 | 0.30 | 0.30 | 94 | 1018.5 |